Time,TemperatureF,DewpointF,PressureIn,WindDirection,WindDirectionDegrees,WindSpeedMPH,WindSpeedGustMPH,Humidity,HourlyPrecipIn,Conditions,Clouds,dailyrainin,SoftwareType,DateUTC
2013-02-17 00:01:00,4.9,-1.6,30.22,West,264,1.0,1.0,74,0.00,,,0.00,Wunderground v.1.15,2013-02-17 06:01:00,
2013-02-17 00:06:00,5.0,-1.8,30.22,West,270,1.0,1.0,73,0.00,,,0.00,Wunderground v.1.15,2013-02-17 06:06:00,
2013-02-17 00:12:00,4.6,-2.2,30.22,West,262,1.0,1.0,73,0.00,,,0.00,Wunderground v.1.15,2013-02-17 06:12:00,
2013-02-17 00:17:00,4.6,-1.9,30.22,West,273,0.0,1.0,74,0.00,,,0.00,Wunderground v.1.15,2013-02-17 06:17:00,
2013-02-17 00:23:00,4.7,-2.1,30.22,West,264,0.0,1.0,73,0.00,,,0.00,Wunderground v.1.15,2013-02-17 06:23:00,
2013-02-17 00:29:00,4.5,-2.3,30.22,West,264,0.0,0.0,73,0.00,,,0.00,Wunderground v.1.15,2013-02-17 06:29:00,
2013-02-17 00:34:00,4.0,-2.7,30.23,West,271,1.0,1.0,73,0.00,,,0.00,Wunderground v.1.15,2013-02-17 06:34:00,
2013-02-17 00:40:00,3.4,-2.7,30.23,West,262,1.0,1.0,75,0.00,,,0.00,Wunderground v.1.15,2013-02-17 06:40:00,
2013-02-17 00:46:00,2.9,-3.0,30.23,West,270,1.0,1.0,76,0.00,,,0.00,Wunderground v.1.15,2013-02-17 06:46:00,
2013-02-17 00:51:00,3.2,-2.1,30.22,West,270,1.0,1.0,78,0.00,,,0.00,Wunderground v.1.15,2013-02-17 06:51:00,
2013-02-17 00:57:00,3.4,-2.5,30.23,West,269,0.0,1.0,76,0.00,,,0.00,Wunderground v.1.15,2013-02-17 06:57:00,
2013-02-17 01:03:00,3.1,-2.8,30.22,West,266,1.0,1.0,76,0.00,,,0.00,Wunderground v.1.15,2013-02-17 07:03:00,
2013-02-17 01:08:00,2.8,-2.8,30.22,West,269,1.0,1.0,77,0.00,,,0.00,Wunderground v.1.15,2013-02-17 07:08:00,
2013-02-17 01:14:00,2.9,-2.4,30.22,West,269,1.0,2.0,78,0.00,,,0.00,Wunderground v.1.15,2013-02-17 07:14:00,
2013-02-17 01:19:00,2.6,-3.0,30.22,West,270,1.0,1.0,77,0.00,,,0.00,Wunderground v.1.15,2013-02-17 07:19:00,
2013-02-17 01:25:00,2.2,-3.1,30.22,West,271,1.0,1.0,78,0.00,,,0.00,Wunderground v.1.15,2013-02-17 07:25:00,
2013-02-17 01:31:00,2.1,-2.9,30.22,West,276,0.0,1.0,79,0.00,,,0.00,Wunderground v.1.15,2013-02-17 07:31:00,
2013-02-17 01:37:00,2.1,-2.9,30.22,West,270,2.0,2.0,79,0.00,,,0.00,Wunderground v.1.15,2013-02-17 07:37:00,
2013-02-17 01:42:00,1.9,-2.8,30.23,West,273,1.0,2.0,80,0.00,,,0.00,Wunderground v.1.15,2013-02-17 07:42:00,
2013-02-17 01:48:00,2.0,-2.8,30.23,West,267,2.0,2.0,80,0.00,,,0.00,Wunderground v.1.15,2013-02-17 07:48:00,
2013-02-17 01:53:00,2.4,-2.4,30.23,West,270,2.0,2.0,80,0.00,,,0.00,Wunderground v.1.15,2013-02-17 07:53:00,
2013-02-17 01:59:00,3.2,-1.8,30.23,West,266,1.0,2.0,79,0.00,,,0.00,Wunderground v.1.15,2013-02-17 07:59:00,
2013-02-17 02:04:00,3.8,-1.5,30.23,West,277,1.0,3.0,78,0.00,,,0.00,Wunderground v.1.15,2013-02-17 08:04:00,
2013-02-17 02:09:00,3.7,-2.5,30.23,West,271,1.0,2.0,75,0.00,,,0.00,Wunderground v.1.15,2013-02-17 08:09:00,
2013-02-17 02:14:00,3.4,-2.5,30.23,West,281,1.0,2.0,76,0.00,,,0.00,Wunderground v.1.15,2013-02-17 08:14:00,
2013-02-17 02:19:00,3.7,-2.2,30.23,West,271,1.0,2.0,76,0.00,,,0.00,Wunderground v.1.15,2013-02-17 08:19:00,
2013-02-17 02:25:00,3.7,-2.5,30.23,West,260,2.0,2.0,75,0.00,,,0.00,Wunderground v.1.15,2013-02-17 08:25:00,
2013-02-17 02:30:00,3.7,-2.5,30.23,West,270,1.0,2.0,75,0.00,,,0.00,Wunderground v.1.15,2013-02-17 08:30:00,
2013-02-17 02:35:00,3.8,-2.4,30.23,West,277,1.0,2.0,75,0.00,,,0.00,Wunderground v.1.15,2013-02-17 08:35:00,
2013-02-17 02:40:00,3.8,-2.4,30.23,West,273,1.0,2.0,75,0.00,,,0.00,Wunderground v.1.15,2013-02-17 08:40:00,
2013-02-17 02:45:00,3.9,-2.3,30.23,West,269,1.0,2.0,75,0.00,,,0.00,Wunderground v.1.15,2013-02-17 08:45:00,
2013-02-17 02:50:00,4.0,-2.2,30.23,West,273,1.0,2.0,75,0.00,,,0.00,Wunderground v.1.15,2013-02-17 08:50:00,
2013-02-17 02:55:00,4.0,-2.2,30.22,West,265,1.0,2.0,75,0.00,,,0.00,Wunderground v.1.15,2013-02-17 08:55:00,
2013-02-17 03:00:00,3.9,-2.5,30.22,West,266,2.0,3.0,74,0.00,,,0.00,Wunderground v.1.15,2013-02-17 09:00:00,
2013-02-17 03:05:00,3.7,-2.5,30.22,West,270,2.0,3.0,75,0.00,,,0.00,Wunderground v.1.15,2013-02-17 09:05:00,
2013-02-17 03:10:00,3.7,-2.5,30.22,West,273,2.0,3.0,75,0.00,,,0.00,Wunderground v.1.15,2013-02-17 09:10:00,
2013-02-17 03:15:00,3.6,-2.6,30.22,West,271,2.0,3.0,75,0.00,,,0.00,Wunderground v.1.15,2013-02-17 09:15:00,
2013-02-17 03:19:00,3.5,-2.7,30.22,West,266,2.0,2.0,75,0.00,,,0.00,Wunderground v.1.15,2013-02-17 09:19:00,
2013-02-17 03:24:00,3.2,-2.9,30.22,West,273,2.0,3.0,75,0.00,,,0.00,Wunderground v.1.15,2013-02-17 09:24:00,
2013-02-17 03:29:00,3.2,-2.4,30.22,West,266,2.0,2.0,77,0.00,,,0.00,Wunderground v.1.15,2013-02-17 09:29:00,
2013-02-17 03:34:00,3.3,-2.6,30.22,West,274,1.0,2.0,76,0.00,,,0.00,Wunderground v.1.15,2013-02-17 09:34:00,
2013-02-17 03:39:00,2.9,-3.0,30.22,West,270,1.0,3.0,76,0.00,,,0.00,Wunderground v.1.15,2013-02-17 09:39:00,
2013-02-17 03:44:00,3.5,-1.8,30.22,West,273,2.0,3.0,78,0.00,,,0.00,Wunderground v.1.15,2013-02-17 09:44:00,
2013-02-17 03:49:00,3.9,-2.0,30.22,West,273,2.0,3.0,76,0.00,,,0.00,Wunderground v.1.15,2013-02-17 09:49:00,
2013-02-17 03:55:00,3.9,-2.3,30.22,West,264,3.0,3.0,75,0.00,,,0.00,Wunderground v.1.15,2013-02-17 09:55:00,
2013-02-17 03:59:00,4.0,-2.2,30.22,West,269,2.0,2.0,75,0.00,,,0.00,Wunderground v.1.15,2013-02-17 09:59:00,
2013-02-17 04:05:00,3.7,-2.7,30.22,West,270,2.0,2.0,74,0.00,,,0.00,Wunderground v.1.15,2013-02-17 10:05:00,
2013-02-17 04:09:00,3.6,-2.3,30.22,West,281,2.0,3.0,76,0.00,,,0.00,Wunderground v.1.15,2013-02-17 10:09:00,
2013-02-17 04:14:00,4.1,-1.8,30.22,West,273,2.0,3.0,76,0.00,,,0.00,Wunderground v.1.15,2013-02-17 10:14:00,
2013-02-17 04:20:00,4.2,-2.0,30.22,West,271,2.0,4.0,75,0.00,,,0.00,Wunderground v.1.15,2013-02-17 10:20:00,
2013-02-17 04:25:00,4.5,-1.7,30.22,West,277,0.0,4.0,75,0.00,,,0.00,Wunderground v.1.15,2013-02-17 10:25:00,
2013-02-17 04:30:00,4.6,-1.9,30.22,West,271,1.0,2.0,74,0.00,,,0.00,Wunderground v.1.15,2013-02-17 10:30:00,
2013-02-17 04:35:00,4.7,-1.8,30.22,West,270,1.0,2.0,74,0.00,,,0.00,Wunderground v.1.15,2013-02-17 10:35:00,
2013-02-17 04:40:00,4.7,-2.1,30.22,West,278,1.0,2.0,73,0.00,,,0.00,Wunderground v.1.15,2013-02-17 10:40:00,
2013-02-17 04:45:00,4.4,-2.3,30.22,NW,318,1.0,2.0,73,0.00,,,0.00,Wunderground v.1.15,2013-02-17 10:45:00,
2013-02-17 04:50:00,4.5,-2.0,30.22,WNW,285,1.0,2.0,74,0.00,,,0.00,Wunderground v.1.15,2013-02-17 10:50:00,
2013-02-17 04:55:00,4.3,-2.4,30.23,West,276,1.0,2.0,73,0.00,,,0.00,Wunderground v.1.15,2013-02-17 10:55:00,
2013-02-17 05:00:00,4.1,-2.4,30.22,West,269,1.0,2.0,74,0.00,,,0.00,Wunderground v.1.15,2013-02-17 11:00:00,
2013-02-17 05:05:00,4.1,-2.4,30.23,West,275,1.0,2.0,74,0.00,,,0.00,Wunderground v.1.15,2013-02-17 11:05:00,
2013-02-17 05:10:00,4.3,-1.9,30.23,West,278,2.0,2.0,75,0.00,,,0.00,Wunderground v.1.15,2013-02-17 11:10:00,
2013-02-17 05:15:00,4.6,-1.9,30.23,WNW,293,2.0,3.0,74,0.00,,,0.00,Wunderground v.1.15,2013-02-17 11:15:00,
2013-02-17 05:20:00,4.8,-2.0,30.23,WNW,285,3.0,3.0,73,0.00,,,0.00,Wunderground v.1.15,2013-02-17 11:20:00,
2013-02-17 05:25:00,4.4,-2.3,30.23,West,281,2.0,3.0,73,0.00,,,0.00,Wunderground v.1.15,2013-02-17 11:25:00,
2013-02-17 05:30:00,4.3,-2.4,30.24,WNW,291,3.0,4.0,73,0.00,,,0.00,Wunderground v.1.15,2013-02-17 11:30:00,
2013-02-17 05:35:00,4.1,-2.6,30.24,West,272,1.0,4.0,73,0.00,,,0.00,Wunderground v.1.15,2013-02-17 11:35:00,
2013-02-17 05:40:00,3.9,-2.5,30.24,WNW,290,2.0,3.0,74,0.00,,,0.00,Wunderground v.1.15,2013-02-17 11:40:00,
2013-02-17 05:45:00,4.3,-1.9,30.24,West,281,2.0,3.0,75,0.00,,,0.00,Wunderground v.1.15,2013-02-17 11:45:00,
2013-02-17 05:50:00,4.8,-1.7,30.23,WNW,285,2.0,3.0,74,0.00,,,0.00,Wunderground v.1.15,2013-02-17 11:50:00,
2013-02-17 05:55:00,4.8,-2.0,30.24,West,279,1.0,3.0,73,0.00,,,0.00,Wunderground v.1.15,2013-02-17 11:55:00,
2013-02-17 06:00:00,4.9,-1.9,30.24,West,273,3.0,3.0,73,0.00,,,0.00,Wunderground v.1.15,2013-02-17 12:00:00,
2013-02-17 06:05:00,4.5,-2.5,30.24,WNW,283,3.0,3.0,72,0.00,,,0.00,Wunderground v.1.15,2013-02-17 12:05:00,
2013-02-17 06:10:00,4.1,-2.4,30.24,West,272,2.0,3.0,74,0.00,,,0.00,Wunderground v.1.15,2013-02-17 12:10:00,
2013-02-17 06:15:00,3.9,-2.5,30.24,West,276,2.0,3.0,74,0.00,,,0.00,Wunderground v.1.15,2013-02-17 12:15:00,
2013-02-17 06:20:00,3.4,-3.0,30.24,WNW,285,2.0,3.0,74,0.00,,,0.00,Wunderground v.1.15,2013-02-17 12:20:00,
2013-02-17 06:25:00,3.3,-2.8,30.24,West,270,2.0,4.0,75,0.00,,,0.00,Wunderground v.1.15,2013-02-17 12:25:00,
2013-02-17 06:30:00,3.3,-2.8,30.24,West,267,4.0,4.0,75,0.00,,,0.00,Wunderground v.1.15,2013-02-17 12:30:00,
2013-02-17 06:35:00,3.5,-2.7,30.24,West,274,4.0,4.0,75,0.00,,,0.00,Wunderground v.1.15,2013-02-17 12:35:00,
2013-02-17 06:40:00,3.5,-2.7,30.24,WNW,283,2.0,4.0,75,0.00,,,0.00,Wunderground v.1.15,2013-02-17 12:40:00,
2013-02-17 06:45:00,3.5,-2.7,30.24,WNW,285,5.0,5.0,75,0.00,,,0.00,Wunderground v.1.15,2013-02-17 12:45:00,
2013-02-17 06:50:00,3.3,-2.8,30.24,WNW,290,4.0,5.0,75,0.00,,,0.00,Wunderground v.1.15,2013-02-17 12:50:00,
2013-02-17 06:55:00,3.4,-2.7,30.24,WNW,293,4.0,5.0,75,0.00,,,0.00,Wunderground v.1.15,2013-02-17 12:55:00,
2013-02-17 07:00:00,3.5,-2.7,30.24,WNW,283,4.0,4.0,75,0.00,,,0.00,Wunderground v.1.15,2013-02-17 13:00:00,
2013-02-17 07:05:00,3.6,-2.6,30.24,WNW,285,3.0,5.0,75,0.00,,,0.00,Wunderground v.1.15,2013-02-17 13:05:00,
2013-02-17 07:10:00,3.7,-2.7,30.25,West,277,2.0,4.0,74,0.00,,,0.00,Wunderground v.1.15,2013-02-17 13:10:00,
2013-02-17 07:15:00,3.7,-2.5,30.25,West,269,3.0,5.0,75,0.00,,,0.00,Wunderground v.1.15,2013-02-17 13:15:00,
2013-02-17 07:20:00,3.8,-2.4,30.25,West,259,3.0,5.0,75,0.00,,,0.00,Wunderground v.1.15,2013-02-17 13:20:00,
2013-02-17 07:25:00,4.3,-2.2,30.25,West,272,3.0,5.0,74,0.00,,,0.00,Wunderground v.1.15,2013-02-17 13:25:00,
2013-02-17 07:30:00,4.6,-1.9,30.25,WNW,283,4.0,5.0,74,0.00,,,0.00,Wunderground v.1.15,2013-02-17 13:30:00,
2013-02-17 07:36:00,4.7,-2.1,30.25,West,269,4.0,5.0,73,0.00,,,0.00,Wunderground v.1.15,2013-02-17 13:36:00,
2013-02-17 07:41:00,4.8,-2.0,30.25,West,280,3.0,4.0,73,0.00,,,0.00,Wunderground v.1.15,2013-02-17 13:41:00,
2013-02-17 07:46:00,5.0,-1.8,30.25,WSW,256,2.0,4.0,73,0.00,,,0.00,Wunderground v.1.15,2013-02-17 13:46:00,
2013-02-17 07:51:00,5.3,-1.2,30.25,West,266,1.0,3.0,74,0.00,,,0.00,Wunderground v.1.15,2013-02-17 13:51:00,
2013-02-17 07:56:00,5.7,-1.1,30.25,WSW,247,2.0,3.0,73,0.00,,,0.00,Wunderground v.1.15,2013-02-17 13:56:00,
2013-02-17 08:01:00,6.0,-0.8,30.25,WSW,246,1.0,2.0,73,0.00,,,0.00,Wunderground v.1.15,2013-02-17 14:01:00,
2013-02-17 08:06:00,6.4,-0.4,30.25,West,263,2.0,2.0,73,0.00,,,0.00,Wunderground v.1.15,2013-02-17 14:06:00,
2013-02-17 08:11:00,6.6,-0.2,30.25,West,264,2.0,3.0,73,0.00,,,0.00,Wunderground v.1.15,2013-02-17 14:11:00,
2013-02-17 08:16:00,7.0,0.2,30.25,West,259,2.0,3.0,73,0.00,,,0.00,Wunderground v.1.15,2013-02-17 14:16:00,
2013-02-17 08:21:00,7.8,0.9,30.25,West,261,2.0,3.0,73,0.00,,,0.00,Wunderground v.1.15,2013-02-17 14:21:00,
2013-02-17 08:26:00,9.0,2.1,30.25,WSW,253,1.0,3.0,73,0.00,,,0.00,Wunderground v.1.15,2013-02-17 14:26:00,
2013-02-17 08:31:00,10.1,2.6,30.25,WSW,253,2.0,2.0,71,0.00,,,0.00,Wunderground v.1.15,2013-02-17 14:31:00,
2013-02-17 08:36:00,10.9,2.4,30.25,West,266,2.0,2.0,68,0.00,,,0.00,Wunderground v.1.15,2013-02-17 14:36:00,
2013-02-17 08:41:00,11.5,2.7,30.25,WSW,250,3.0,3.0,67,0.00,,,0.00,Wunderground v.1.15,2013-02-17 14:41:00,
2013-02-17 08:46:00,12.1,2.9,30.25,West,260,2.0,3.0,66,0.00,,,0.00,Wunderground v.1.15,2013-02-17 14:46:00,
2013-02-17 08:51:00,12.6,2.7,30.25,West,280,1.0,3.0,64,0.00,,,0.00,Wunderground v.1.15,2013-02-17 14:51:00,
2013-02-17 08:56:00,13.2,3.3,30.25,West,266,1.0,3.0,64,0.00,,,0.00,Wunderground v.1.15,2013-02-17 14:56:00,
2013-02-17 09:01:00,13.7,3.8,30.25,West,264,0.0,2.0,64,0.00,,,0.00,Wunderground v.1.15,2013-02-17 15:01:00,
2013-02-17 09:06:00,14.5,3.8,30.25,WSW,253,0.0,2.0,62,0.00,,,0.00,Wunderground v.1.15,2013-02-17 15:06:00,
2013-02-17 09:11:00,14.7,3.3,30.25,West,262,0.0,1.0,60,0.00,,,0.00,Wunderground v.1.15,2013-02-17 15:11:00,
2013-02-17 09:16:00,15.4,4.0,30.25,WSW,248,0.0,2.0,60,0.00,,,0.00,Wunderground v.1.15,2013-02-17 15:16:00,
2013-02-17 09:21:00,16.8,4.9,30.25,WSW,250,0.0,1.0,59,0.00,,,0.00,Wunderground v.1.15,2013-02-17 15:21:00,
2013-02-17 09:26:00,17.7,3.4,30.25,WSW,250,0.0,1.0,53,0.00,,,0.00,Wunderground v.1.15,2013-02-17 15:26:00,
2013-02-17 09:31:00,18.1,3.4,30.25,SSE,164,0.0,1.0,52,0.00,,,0.00,Wunderground v.1.15,2013-02-17 15:31:00,
2013-02-17 09:36:00,18.8,2.8,30.25,SW,235,2.0,3.0,49,0.00,,,0.00,Wunderground v.1.15,2013-02-17 15:36:00,
2013-02-17 09:41:00,18.6,2.6,30.25,SSE,166,2.0,2.0,49,0.00,,,0.00,Wunderground v.1.15,2013-02-17 15:41:00,
2013-02-17 09:46:00,18.0,1.1,30.25,West,260,0.0,3.0,47,0.00,,,0.00,Wunderground v.1.15,2013-02-17 15:46:00,
2013-02-17 09:51:00,18.3,2.3,30.25,WSW,248,3.0,3.0,49,0.00,,,0.00,Wunderground v.1.15,2013-02-17 15:51:00,
2013-02-17 09:56:00,18.2,2.2,30.25,WSW,245,0.0,4.0,49,0.00,,,0.00,Wunderground v.1.15,2013-02-17 15:56:00,
2013-02-17 10:01:00,18.6,1.7,30.25,WSW,249,0.0,2.0,47,0.00,,,0.00,Wunderground v.1.15,2013-02-17 16:01:00,
2013-02-17 10:06:00,18.9,2.4,30.25,South,173,1.0,2.0,48,0.00,,,0.00,Wunderground v.1.15,2013-02-17 16:06:00,
2013-02-17 10:11:00,19.4,2.0,30.25,West,268,1.0,2.0,46,0.00,,,0.00,Wunderground v.1.15,2013-02-17 16:11:00,
2013-02-17 10:16:00,19.4,1.5,30.25,WSW,250,1.0,2.0,45,0.00,,,0.00,Wunderground v.1.15,2013-02-17 16:16:00,
2013-02-17 10:21:00,19.5,2.0,30.25,SW,217,0.0,2.0,46,0.00,,,0.00,Wunderground v.1.15,2013-02-17 16:21:00,
2013-02-17 10:26:00,19.6,1.7,30.25,West,266,1.0,3.0,45,0.00,,,0.00,Wunderground v.1.15,2013-02-17 16:26:00,
2013-02-17 10:31:00,20.4,2.9,30.25,NNW,345,0.0,1.0,46,0.00,,,0.00,Wunderground v.1.15,2013-02-17 16:31:00,
2013-02-17 10:36:00,21.2,2.6,30.24,WSW,253,3.0,4.0,44,0.00,,,0.00,Wunderground v.1.15,2013-02-17 16:36:00,
2013-02-17 10:41:00,19.9,1.5,30.24,WSW,237,2.0,4.0,44,0.00,,,0.00,Wunderground v.1.15,2013-02-17 16:41:00,
2013-02-17 10:46:00,19.9,1.5,30.24,WSW,257,1.0,4.0,44,0.00,,,0.00,Wunderground v.1.15,2013-02-17 16:46:00,
2013-02-17 10:51:00,19.9,1.9,30.24,SSE,165,2.0,3.0,45,0.00,,,0.00,Wunderground v.1.15,2013-02-17 16:51:00,
2013-02-17 10:56:00,21.1,3.0,30.23,SSE,162,1.0,3.0,45,0.00,,,0.00,Wunderground v.1.15,2013-02-17 16:56:00,
2013-02-17 11:01:00,22.7,3.5,30.23,SSE,147,0.0,1.0,43,0.00,,,0.00,Wunderground v.1.15,2013-02-17 17:01:00,
2013-02-17 11:06:00,23.3,3.6,30.23,ENE,75,2.0,4.0,42,0.00,,,0.00,Wunderground v.1.15,2013-02-17 17:06:00,
2013-02-17 11:11:00,22.3,3.2,30.23,East,90,3.0,6.0,43,0.00,,,0.00,Wunderground v.1.15,2013-02-17 17:11:00,
2013-02-17 11:16:00,21.9,2.8,30.24,WSW,251,2.0,6.0,43,0.00,,,0.00,Wunderground v.1.15,2013-02-17 17:16:00,
2013-02-17 11:21:00,21.4,2.8,30.23,South,174,1.0,5.0,44,0.00,,,0.00,Wunderground v.1.15,2013-02-17 17:21:00,
2013-02-17 11:26:00,21.5,2.4,30.24,SSE,165,2.0,6.0,43,0.00,,,0.00,Wunderground v.1.15,2013-02-17 17:26:00,
2013-02-17 11:31:00,21.8,3.7,30.23,West,269,3.0,4.0,45,0.00,,,0.00,Wunderground v.1.15,2013-02-17 17:31:00,
2013-02-17 11:36:00,20.8,2.3,30.24,WSW,256,3.0,6.0,44,0.00,,,0.00,Wunderground v.1.15,2013-02-17 17:36:00,
2013-02-17 11:41:00,20.5,3.0,30.23,SW,229,0.0,3.0,46,0.00,,,0.00,Wunderground v.1.15,2013-02-17 17:41:00,
2013-02-17 11:46:00,21.2,2.6,30.23,West,264,1.0,4.0,44,0.00,,,0.00,Wunderground v.1.15,2013-02-17 17:46:00,
2013-02-17 11:51:00,21.0,3.9,30.22,WSW,256,3.0,5.0,47,0.00,,,0.00,Wunderground v.1.15,2013-02-17 17:51:00,
2013-02-17 11:56:00,21.1,3.0,30.22,SSE,162,0.0,6.0,45,0.00,,,0.00,Wunderground v.1.15,2013-02-17 17:56:00,
2013-02-17 12:01:00,22.2,4.1,30.22,South,186,2.0,4.0,45,0.00,,,0.00,Wunderground v.1.15,2013-02-17 18:01:00,
2013-02-17 12:06:00,23.0,4.8,30.22,SSE,167,2.0,4.0,45,0.00,,,0.00,Wunderground v.1.15,2013-02-17 18:06:00,
2013-02-17 12:11:00,24.1,4.8,30.22,East,94,3.0,3.0,43,0.00,,,0.00,Wunderground v.1.15,2013-02-17 18:11:00,
2013-02-17 12:16:00,23.9,4.1,30.22,NE,51,0.0,4.0,42,0.00,,,0.00,Wunderground v.1.15,2013-02-17 18:16:00,
2013-02-17 12:21:00,23.0,3.3,30.21,WSW,256,3.0,4.0,42,0.00,,,0.00,Wunderground v.1.15,2013-02-17 18:21:00,
2013-02-17 12:26:00,23.3,5.1,30.21,WSW,256,1.0,6.0,45,0.00,,,0.00,Wunderground v.1.15,2013-02-17 18:26:00,
2013-02-17 12:31:00,23.4,4.2,30.21,NE,40,2.0,4.0,43,0.00,,,0.00,Wunderground v.1.15,2013-02-17 18:31:00,
2013-02-17 12:36:00,23.5,3.7,30.21,South,188,1.0,6.0,42,0.00,,,0.00,Wunderground v.1.15,2013-02-17 18:36:00,
2013-02-17 12:41:00,24.6,4.7,30.20,NE,46,1.0,2.0,42,0.00,,,0.00,Wunderground v.1.15,2013-02-17 18:41:00,
2013-02-17 12:46:00,24.6,4.2,30.20,WSW,240,1.0,4.0,41,0.00,,,0.00,Wunderground v.1.15,2013-02-17 18:46:00,
2013-02-17 12:51:00,24.4,3.5,30.20,SW,221,2.0,7.0,40,0.00,,,0.00,Wunderground v.1.15,2013-02-17 18:51:00,
2013-02-17 12:56:00,24.5,5.2,30.20,ENE,71,3.0,7.0,43,0.00,,,0.00,Wunderground v.1.15,2013-02-17 18:56:00,
2013-02-17 13:01:00,24.6,4.7,30.20,ENE,74,3.0,3.0,42,0.00,,,0.00,Wunderground v.1.15,2013-02-17 19:01:00,
2013-02-17 13:06:00,25.4,6.0,30.20,SSE,155,1.0,5.0,43,0.00,,,0.00,Wunderground v.1.15,2013-02-17 19:06:00,
2013-02-17 13:11:00,25.6,4.6,30.20,SE,129,1.0,6.0,40,0.00,,,0.00,Wunderground v.1.15,2013-02-17 19:11:00,
2013-02-17 13:16:00,25.8,5.3,30.20,SE,138,3.0,6.0,41,0.00,,,0.00,Wunderground v.1.15,2013-02-17 19:16:00,
2013-02-17 13:21:00,25.8,4.2,30.19,SE,125,1.0,5.0,39,0.00,,,0.00,Wunderground v.1.15,2013-02-17 19:21:00,
2013-02-17 13:26:00,25.2,4.2,30.19,South,188,2.0,6.0,40,0.00,,,0.00,Wunderground v.1.15,2013-02-17 19:26:00,
2013-02-17 13:31:00,25.3,4.3,30.19,East,94,3.0,7.0,40,0.00,,,0.00,Wunderground v.1.15,2013-02-17 19:31:00,
2013-02-17 13:36:00,25.1,4.1,30.19,SE,138,7.0,8.0,40,0.00,,,0.00,Wunderground v.1.15,2013-02-17 19:36:00,
2013-02-17 13:41:00,24.8,3.3,30.19,SSE,152,3.0,6.0,39,0.00,,,0.00,Wunderground v.1.15,2013-02-17 19:41:00,
2013-02-17 13:46:00,25.2,4.2,30.19,SSE,156,1.0,6.0,40,0.00,,,0.00,Wunderground v.1.15,2013-02-17 19:46:00,
2013-02-17 13:51:00,25.8,4.2,30.19,East,89,2.0,6.0,39,0.00,,,0.00,Wunderground v.1.15,2013-02-17 19:51:00,
2013-02-17 13:56:00,25.4,4.9,30.18,SSE,165,5.0,6.0,41,0.00,,,0.00,Wunderground v.1.15,2013-02-17 19:56:00,
2013-02-17 14:01:00,25.9,4.9,30.18,SSW,205,2.0,8.0,40,0.00,,,0.00,Wunderground v.1.15,2013-02-17 20:01:00,
2013-02-17 14:06:00,25.9,5.4,30.18,ENE,71,1.0,8.0,41,0.00,,,0.00,Wunderground v.1.15,2013-02-17 20:06:00,
2013-02-17 14:11:00,26.0,6.0,30.18,SE,140,2.0,7.0,42,0.00,,,0.00,Wunderground v.1.15,2013-02-17 20:11:00,
2013-02-17 14:16:00,26.2,6.2,30.17,South,186,1.0,7.0,42,0.00,,,0.00,Wunderground v.1.15,2013-02-17 20:16:00,
2013-02-17 14:21:00,26.6,5.5,30.17,South,172,1.0,6.0,40,0.00,,,0.00,Wunderground v.1.15,2013-02-17 20:21:00,
2013-02-17 14:26:00,26.8,6.2,30.17,SSE,163,3.0,6.0,41,0.00,,,0.00,Wunderground v.1.15,2013-02-17 20:26:00,
2013-02-17 14:31:00,26.5,5.9,30.17,SSE,165,0.0,3.0,41,0.00,,,0.00,Wunderground v.1.15,2013-02-17 20:31:00,
2013-02-17 14:36:00,26.4,5.3,30.17,South,177,0.0,7.0,40,0.00,,,0.00,Wunderground v.1.15,2013-02-17 20:36:00,
2013-02-17 14:41:00,26.8,5.7,30.17,WSW,246,2.0,6.0,40,0.00,,,0.00,Wunderground v.1.15,2013-02-17 20:41:00,
2013-02-17 14:46:00,26.5,5.9,30.16,SE,124,2.0,6.0,41,0.00,,,0.00,Wunderground v.1.15,2013-02-17 20:46:00,
2013-02-17 14:51:00,26.5,4.8,30.17,SE,139,3.0,5.0,39,0.00,,,0.00,Wunderground v.1.15,2013-02-17 20:51:00,
2013-02-17 14:56:00,26.3,5.2,30.17,SSW,207,0.0,7.0,40,0.00,,,0.00,Wunderground v.1.15,2013-02-17 20:56:00,
2013-02-17 15:02:00,26.5,5.4,30.16,SE,141,1.0,7.0,40,0.00,,,0.00,Wunderground v.1.15,2013-02-17 21:02:00,
2013-02-17 15:06:00,26.5,6.5,30.16,SE,143,1.0,7.0,42,0.00,,,0.00,Wunderground v.1.15,2013-02-17 21:06:00,
2013-02-17 15:11:00,26.1,5.6,30.16,East,90,4.0,9.0,41,0.00,,,0.00,Wunderground v.1.15,2013-02-17 21:11:00,
2013-02-17 15:16:00,25.9,5.9,30.15,SE,141,1.0,9.0,42,0.00,,,0.00,Wunderground v.1.15,2013-02-17 21:16:00,
2013-02-17 15:21:00,26.3,6.8,30.15,SE,141,3.0,4.0,43,0.00,,,0.00,Wunderground v.1.15,2013-02-17 21:21:00,
2013-02-17 15:27:00,26.6,7.1,30.15,SSE,154,2.0,7.0,43,0.00,,,0.00,Wunderground v.1.15,2013-02-17 21:27:00,
2013-02-17 15:32:00,27.2,7.1,30.15,SSW,207,1.0,7.0,42,0.00,,,0.00,Wunderground v.1.15,2013-02-17 21:32:00,
2013-02-17 15:37:00,27.1,7.5,30.14,East,91,3.0,7.0,43,0.00,,,0.00,Wunderground v.1.15,2013-02-17 21:37:00,
2013-02-17 15:42:00,26.8,6.2,30.14,SE,146,3.0,5.0,41,0.00,,,0.00,Wunderground v.1.15,2013-02-17 21:42:00,
2013-02-17 15:46:00,26.6,6.6,30.14,SSE,167,2.0,5.0,42,0.00,,,0.00,Wunderground v.1.15,2013-02-17 21:46:00,
2013-02-17 15:51:00,26.5,6.5,30.15,SSW,200,2.0,6.0,42,0.00,,,0.00,Wunderground v.1.15,2013-02-17 21:51:00,
2013-02-17 15:56:00,26.5,6.5,30.14,SW,236,2.0,6.0,42,0.00,,,0.00,Wunderground v.1.15,2013-02-17 21:56:00,
2013-02-17 16:01:00,26.5,7.0,30.14,SSE,148,2.0,6.0,43,0.00,,,0.00,Wunderground v.1.15,2013-02-17 22:01:00,
2013-02-17 16:06:00,26.4,6.9,30.14,SSE,160,2.0,6.0,43,0.00,,,0.00,Wunderground v.1.15,2013-02-17 22:06:00,
2013-02-17 16:11:00,26.1,6.1,30.13,ENE,68,2.0,5.0,42,0.00,,,0.00,Wunderground v.1.15,2013-02-17 22:11:00,
2013-02-17 16:16:00,25.5,6.1,30.13,East,86,2.0,5.0,43,0.00,,,0.00,Wunderground v.1.15,2013-02-17 22:16:00,
2013-02-17 16:22:00,24.9,5.5,30.13,SE,125,2.0,4.0,43,0.00,,,0.00,Wunderground v.1.15,2013-02-17 22:22:00,
2013-02-17 16:27:00,24.6,6.3,30.13,East,87,1.0,4.0,45,0.00,,,0.00,Wunderground v.1.15,2013-02-17 22:27:00,
2013-02-17 16:32:00,24.2,6.4,30.13,ESE,108,2.0,6.0,46,0.00,,,0.00,Wunderground v.1.15,2013-02-17 22:32:00,
2013-02-17 16:37:00,24.0,7.1,30.13,SE,143,3.0,7.0,48,0.00,,,0.00,Wunderground v.1.15,2013-02-17 22:37:00,
2013-02-17 16:42:00,23.9,7.0,30.13,SE,143,1.0,5.0,48,0.00,,,0.00,Wunderground v.1.15,2013-02-17 22:42:00,
2013-02-17 16:47:00,23.8,7.4,30.13,ESE,118,1.0,5.0,49,0.00,,,0.00,Wunderground v.1.15,2013-02-17 22:47:00,
2013-02-17 16:52:00,23.7,7.3,30.12,SSE,159,2.0,6.0,49,0.00,,,0.00,Wunderground v.1.15,2013-02-17 22:52:00,
2013-02-17 16:57:00,23.8,7.8,30.12,East,82,2.0,7.0,50,0.00,,,0.00,Wunderground v.1.15,2013-02-17 22:57:00,
2013-02-17 17:02:00,23.6,7.7,30.12,SSE,149,1.0,5.0,50,0.00,,,0.00,Wunderground v.1.15,2013-02-17 23:02:00,
2013-02-17 17:07:00,23.3,7.8,30.13,SSE,155,0.0,6.0,51,0.00,,,0.00,Wunderground v.1.15,2013-02-17 23:07:00,
2013-02-17 17:12:00,23.1,7.6,30.13,ESE,105,2.0,5.0,51,0.00,,,0.00,Wunderground v.1.15,2013-02-17 23:12:00,
2013-02-17 17:17:00,22.9,7.9,30.13,East,100,1.0,5.0,52,0.00,,,0.00,Wunderground v.1.15,2013-02-17 23:17:00,
2013-02-17 17:22:00,22.5,7.5,30.13,SE,145,4.0,4.0,52,0.00,,,0.00,Wunderground v.1.15,2013-02-17 23:22:00,
2013-02-17 17:27:00,22.3,7.7,30.13,SE,128,1.0,4.0,53,0.00,,,0.00,Wunderground v.1.15,2013-02-17 23:27:00,
2013-02-17 17:32:00,22.0,7.5,30.13,SE,128,1.0,2.0,53,0.00,,,0.00,Wunderground v.1.15,2013-02-17 23:32:00,
2013-02-17 17:37:00,21.7,7.6,30.13,SE,129,0.0,4.0,54,0.00,,,0.00,Wunderground v.1.15,2013-02-17 23:37:00,
2013-02-17 17:42:00,21.7,7.6,30.13,East,84,2.0,4.0,54,0.00,,,0.00,Wunderground v.1.15,2013-02-17 23:42:00,
2013-02-17 17:47:00,21.5,7.8,30.12,SE,126,0.0,4.0,55,0.00,,,0.00,Wunderground v.1.15,2013-02-17 23:47:00,
2013-02-17 17:52:00,21.5,7.8,30.13,East,82,2.0,3.0,55,0.00,,,0.00,Wunderground v.1.15,2013-02-17 23:52:00,
2013-02-17 17:57:00,21.4,7.7,30.12,ESE,106,1.0,3.0,55,0.00,,,0.00,Wunderground v.1.15,2013-02-17 23:57:00,
2013-02-17 18:02:00,21.3,7.6,30.12,ESE,122,0.0,4.0,55,0.00,,,0.00,Wunderground v.1.15,2013-02-18 00:02:00,
2013-02-17 18:07:00,21.1,7.8,30.12,East,98,1.0,4.0,56,0.00,,,0.00,Wunderground v.1.15,2013-02-18 00:07:00,
2013-02-17 18:12:00,21.0,7.7,30.12,SE,124,0.0,2.0,56,0.00,,,0.00,Wunderground v.1.15,2013-02-18 00:12:00,
2013-02-17 18:17:00,21.0,7.3,30.12,East,82,1.0,4.0,55,0.00,,,0.00,Wunderground v.1.15,2013-02-18 00:17:00,
2013-02-17 18:22:00,20.9,7.6,30.12,ESE,117,1.0,2.0,56,0.00,,,0.00,Wunderground v.1.15,2013-02-18 00:22:00,
2013-02-17 18:27:00,20.7,7.5,30.12,East,93,0.0,2.0,56,0.00,,,0.00,Wunderground v.1.15,2013-02-18 00:27:00,
2013-02-17 18:32:00,20.6,7.8,30.12,East,97,0.0,3.0,57,0.00,,,0.00,Wunderground v.1.15,2013-02-18 00:32:00,
2013-02-17 18:37:00,20.6,7.8,30.12,ESE,115,0.0,3.0,57,0.00,,,0.00,Wunderground v.1.15,2013-02-18 00:37:00,
2013-02-17 18:42:00,20.6,8.1,30.12,East,91,1.0,3.0,58,0.00,,,0.00,Wunderground v.1.15,2013-02-18 00:42:00,
2013-02-17 18:47:00,20.7,8.2,30.12,East,89,3.0,6.0,58,0.00,,,0.00,Wunderground v.1.15,2013-02-18 00:47:00,
2013-02-17 18:52:00,20.9,8.4,30.12,East,79,2.0,5.0,58,0.00,,,0.00,Wunderground v.1.15,2013-02-18 00:52:00,
2013-02-17 18:57:00,20.8,8.7,30.12,East,87,1.0,5.0,59,0.00,,,0.00,Wunderground v.1.15,2013-02-18 00:57:00,
2013-02-17 19:02:00,20.9,8.8,30.12,ENE,76,2.0,5.0,59,0.00,,,0.00,Wunderground v.1.15,2013-02-18 01:02:00,
2013-02-17 19:07:00,20.9,9.2,30.11,ESE,120,4.0,7.0,60,0.00,,,0.00,Wunderground v.1.15,2013-02-18 01:07:00,
2013-02-17 19:12:00,21.0,9.6,30.11,ENE,78,2.0,7.0,61,0.00,,,0.00,Wunderground v.1.15,2013-02-18 01:12:00,
2013-02-17 19:17:00,20.8,9.5,30.11,East,82,2.0,7.0,61,0.00,,,0.00,Wunderground v.1.15,2013-02-18 01:17:00,
2013-02-17 19:22:00,20.8,9.8,30.11,East,83,1.0,5.0,62,0.00,,,0.00,Wunderground v.1.15,2013-02-18 01:22:00,
2013-02-17 19:27:00,20.7,10.4,30.11,East,84,2.0,5.0,64,0.00,,,0.00,Wunderground v.1.15,2013-02-18 01:27:00,
2013-02-17 19:32:00,20.7,10.8,30.11,East,89,3.0,7.0,65,0.00,,,0.00,Wunderground v.1.15,2013-02-18 01:32:00,
2013-02-17 19:37:00,20.7,10.8,30.10,ENE,68,4.0,7.0,65,0.00,,,0.00,Wunderground v.1.15,2013-02-18 01:37:00,
2013-02-17 19:42:00,20.6,11.0,30.10,ESE,122,1.0,6.0,66,0.00,,,0.00,Wunderground v.1.15,2013-02-18 01:42:00,
2013-02-17 19:47:00,20.6,11.0,30.10,ENE,70,3.0,6.0,66,0.00,,,0.00,Wunderground v.1.15,2013-02-18 01:47:00,
2013-02-17 19:52:00,20.7,11.1,30.09,ENE,60,3.0,4.0,66,0.00,,,0.00,Wunderground v.1.15,2013-02-18 01:52:00,
2013-02-17 19:57:00,20.8,11.2,30.08,ENE,77,2.0,7.0,66,0.00,,,0.00,Wunderground v.1.15,2013-02-18 01:57:00,
2013-02-17 20:02:00,20.8,11.6,30.08,SSE,152,1.0,6.0,67,0.00,,,0.00,Wunderground v.1.15,2013-02-18 02:02:00,
2013-02-17 20:07:00,21.0,11.8,30.08,SE,129,4.0,10.0,67,0.00,,,0.00,Wunderground v.1.15,2013-02-18 02:07:00,
2013-02-17 20:12:00,21.0,11.8,30.08,ENE,60,2.0,4.0,67,0.00,,,0.00,Wunderground v.1.15,2013-02-18 02:12:00,
2013-02-17 20:17:00,21.1,11.8,30.08,East,97,4.0,9.0,67,0.00,,,0.00,Wunderground v.1.15,2013-02-18 02:17:00,
2013-02-17 20:22:00,21.3,11.7,30.08,ESE,106,4.0,7.0,66,0.00,,,0.00,Wunderground v.1.15,2013-02-18 02:22:00,
2013-02-17 20:27:00,21.4,11.8,30.08,SE,128,2.0,7.0,66,0.00,,,0.00,Wunderground v.1.15,2013-02-18 02:27:00,
2013-02-17 20:32:00,21.3,11.7,30.08,East,100,1.0,4.0,66,0.00,,,0.00,Wunderground v.1.15,2013-02-18 02:32:00,
2013-02-17 20:37:00,21.3,11.7,30.08,ESE,105,4.0,5.0,66,0.00,,,0.00,Wunderground v.1.15,2013-02-18 02:37:00,
2013-02-17 20:42:00,21.3,11.7,30.08,ENE,75,4.0,4.0,66,0.00,,,0.00,Wunderground v.1.15,2013-02-18 02:42:00,
2013-02-17 20:47:00,21.5,11.9,30.08,East,83,2.0,5.0,66,0.00,,,0.00,Wunderground v.1.15,2013-02-18 02:47:00,
2013-02-17 20:52:00,21.4,11.5,30.08,SE,136,0.0,4.0,65,0.00,,,0.00,Wunderground v.1.15,2013-02-18 02:52:00,
2013-02-17 20:57:00,21.5,11.5,30.08,ESE,113,1.0,4.0,65,0.00,,,0.00,Wunderground v.1.15,2013-02-18 02:57:00,
2013-02-17 21:02:00,21.3,11.4,30.08,ESE,121,0.0,4.0,65,0.00,,,0.00,Wunderground v.1.15,2013-02-18 03:02:00,
2013-02-17 21:07:00,21.3,11.4,30.08,East,80,2.0,4.0,65,0.00,,,0.00,Wunderground v.1.15,2013-02-18 03:07:00,
2013-02-17 21:12:00,21.3,11.4,30.08,SE,124,1.0,5.0,65,0.00,,,0.00,Wunderground v.1.15,2013-02-18 03:12:00,
2013-02-17 21:17:00,21.3,11.4,30.08,ENE,72,2.0,5.0,65,0.00,,,0.00,Wunderground v.1.15,2013-02-18 03:17:00,
2013-02-17 21:22:00,21.5,11.5,30.07,ENE,77,5.0,5.0,65,0.00,,,0.00,Wunderground v.1.15,2013-02-18 03:22:00,
2013-02-17 21:27:00,21.7,11.4,30.07,East,81,2.0,5.0,64,0.00,,,0.00,Wunderground v.1.15,2013-02-18 03:27:00,
2013-02-17 21:32:00,21.9,11.2,30.08,East,101,2.0,3.0,63,0.00,,,0.00,Wunderground v.1.15,2013-02-18 03:32:00,
2013-02-17 21:37:00,22.0,11.0,30.08,ESE,110,2.0,4.0,62,0.00,,,0.00,Wunderground v.1.15,2013-02-18 03:37:00,
2013-02-17 21:42:00,22.1,11.1,30.08,SE,127,2.0,4.0,62,0.00,,,0.00,Wunderground v.1.15,2013-02-18 03:42:00,
2013-02-17 21:47:00,22.3,10.9,30.07,ENE,72,2.0,4.0,61,0.00,,,0.00,Wunderground v.1.15,2013-02-18 03:47:00,
2013-02-17 21:52:00,22.6,10.8,30.07,ESE,113,0.0,3.0,60,0.00,,,0.00,Wunderground v.1.15,2013-02-18 03:52:00,
2013-02-17 21:57:00,22.8,11.0,30.07,ESE,111,2.0,7.0,60,0.00,,,0.00,Wunderground v.1.15,2013-02-18 03:57:00,
2013-02-17 22:02:00,23.2,11.4,30.06,East,86,7.0,9.0,60,0.00,,,0.00,Wunderground v.1.15,2013-02-18 04:02:00,
2013-02-17 22:07:00,23.5,11.3,30.06,SE,142,1.0,9.0,59,0.00,,,0.00,Wunderground v.1.15,2013-02-18 04:07:00,
2013-02-17 22:12:00,23.7,11.4,30.06,ENE,77,5.0,12.0,59,0.00,,,0.00,Wunderground v.1.15,2013-02-18 04:12:00,
2013-02-17 22:17:00,24.0,11.3,30.06,SSE,158,4.0,12.0,58,0.00,,,0.00,Wunderground v.1.15,2013-02-18 04:17:00,
2013-02-17 22:22:00,24.0,11.3,30.06,SE,138,3.0,6.0,58,0.00,,,0.00,Wunderground v.1.15,2013-02-18 04:22:00,
2013-02-17 22:27:00,24.2,11.9,30.06,ESE,116,1.0,9.0,59,0.00,,,0.00,Wunderground v.1.15,2013-02-18 04:27:00,
2013-02-17 22:32:00,24.3,12.0,30.06,SE,131,6.0,8.0,59,0.00,,,0.00,Wunderground v.1.15,2013-02-18 04:32:00,
2013-02-17 22:37:00,24.4,12.1,30.06,ESE,121,3.0,11.0,59,0.00,,,0.00,Wunderground v.1.15,2013-02-18 04:37:00,
2013-02-17 22:42:00,24.6,12.3,30.06,SE,124,5.0,8.0,59,0.00,,,0.00,Wunderground v.1.15,2013-02-18 04:42:00,
2013-02-17 22:47:00,24.7,12.4,30.06,East,81,5.0,11.0,59,0.00,,,0.00,Wunderground v.1.15,2013-02-18 04:47:00,
2013-02-17 22:52:00,24.8,12.5,30.05,SE,145,2.0,8.0,59,0.00,,,0.00,Wunderground v.1.15,2013-02-18 04:52:00,
2013-02-17 22:57:00,24.9,12.6,30.05,SE,128,3.0,8.0,59,0.00,,,0.00,Wunderground v.1.15,2013-02-18 04:57:00,
2013-02-17 23:00:00,24.9,12.6,30.05,South,169,4.0,7.0,59,0.00,,,0.00,Wunderground v.1.15,2013-02-18 05:00:00,
2013-02-17 23:05:00,25.1,12.8,30.04,ENE,77,1.0,8.0,59,0.00,,,0.00,Wunderground v.1.15,2013-02-18 05:05:00,
2013-02-17 23:10:00,25.1,12.8,30.04,SE,135,2.0,9.0,59,0.00,,,0.00,Wunderground v.1.15,2013-02-18 05:10:00,
2013-02-17 23:15:00,25.2,13.2,30.04,East,99,4.0,10.0,60,0.00,,,0.00,Wunderground v.1.15,2013-02-18 05:15:00,
2013-02-17 23:20:00,25.4,13.4,30.04,SSE,155,9.0,11.0,60,0.00,,,0.00,Wunderground v.1.15,2013-02-18 05:20:00,
2013-02-17 23:25:00,25.6,13.6,30.03,East,91,3.0,11.0,60,0.00,,,0.00,Wunderground v.1.15,2013-02-18 05:25:00,
2013-02-17 23:30:00,25.6,13.6,30.03,East,96,8.0,8.0,60,0.00,,,0.00,Wunderground v.1.15,2013-02-18 05:30:00,
2013-02-17 23:35:00,25.7,14.1,30.03,SSE,166,6.0,11.0,61,0.00,,,0.00,Wunderground v.1.15,2013-02-18 05:35:00,
2013-02-17 23:40:00,25.8,14.2,30.03,SE,136,2.0,5.0,61,0.00,,,0.00,Wunderground v.1.15,2013-02-18 05:40:00,
2013-02-17 23:45:00,26.0,14.4,30.03,SW,222,2.0,8.0,61,0.00,,,0.00,Wunderground v.1.15,2013-02-18 05:45:00,
2013-02-17 23:50:00,26.0,14.4,30.02,East,96,5.0,7.0,61,0.00,,,0.00,Wunderground v.1.15,2013-02-18 05:50:00,
2013-02-17 23:55:00,26.0,14.4,30.02,East,86,3.0,7.0,61,0.00,,,0.00,Wunderground v.1.15,2013-02-18 05:55:00,